Powrót do katalogu

SL-24 R/B

AktywnyPO
NORAD 31123·ROCKET BODY·🇷🇺 Russia

Wystrzelony Apr 17, 2007 z Baikonur Cosmodrome

Loading…

Następne Przeloty (najbliższe 24 godziny)

TLE

ŚwieżeSource: Space-Track

Epoka: Sep 14, 2026, 20:55 UTC

1 31123U 07012G   26257.87188606  .00000071  00000-0  37369-4 0  9996
2 31123  98.0069  93.5442 0310095 143.8870 352.0894 14.13540195   846

Śledź SL-24 R/B w czasie rzeczywistym z AllMySat

Download on the App Store